Location: Gugi
(45.4667°N, 11.1000°E)
Time: 06:15:53
(UTC+00:00)

Cosmos 1697 Rocket - Pass Details

Date: 17 November 2019
Orbit: 833 x 843 km, 71.0° (Epoch: 05 December)

Event Time Altitude Azimuth Distance (km) Brightness Sun altitude
Rises 16:58:04 0° 193° (SSW) 3,384 6.2 -13.0°
Reaches altitude 10° 17:00:31 10° 191° (S) 2,453 5.4 -13.4°
Maximum altitude 17:06:04 63° 111° (ESE) 939 2.7 -14.4°
Enters shadow 17:11:26 11° 32° (NNE) 2,390 4.7 -15.3°
